CW5988 Weather Reports


time (UTC)temp
C
wind
direction
speed
KPH
gust
KPH
rain 1hr
cm
rain 24hr
cm
rain mn
cm
humidity
%
barometer
mb
20260831114452 14 239 1.6 12.9 0.00 0.00 0.00 83 1012.7
20260831113936 14 313 6.4 12.9 0.00 0.00 0.00 83 1012.7
20260831113421 14 313 1.6 17.7 0.00 0.00 0.00 83 1012.6
20260831112923 14 256 3.2 16.1 0.00 0.00 0.00 83 1012.6
20260831112426 14 88 1.6 8.0 0.00 0.00 0.00 83 1012.7
20260831111931 14 276 3.2 11.3 0.00 0.00 0.00 83 1012.6
20260831111435 14 239 1.6 14.5 0.00 0.00 0.00 83 1012.7
20260831110938 14 31 4.8 14.5 0.00 0.00 0.00 83 1012.7
20260831110440 14 185 8.0 14.5 0.00 0.00 0.00 83 1012.7
20260831105925 14 57 3.2 11.3 0.00 0.00 0.00 83 1012.7
20260831105426 14 78 1.6 11.3 0.00 0.00 0.00 83 1012.6
20260831104932 14 207 4.8 16.1 0.00 0.00 0.00 83 1012.6
20260831104439 14 230 6.4 16.1 0.00 0.00 0.00 83 1012.5
20260831103925 14 239 1.6 12.9 0.00 0.00 0.00 83 1012.6
20260831103430 14 299 6.4 16.1 0.00 0.00 0.00 83 1012.5
20260831102936 14 217 6.4 20.9 0.00 0.00 0.00 83 1012.5
20260831102422 14 222 11.3 22.5 0.00 0.00 0.00 83 1012.5
20260831101922 14 202 8.0 22.5 0.00 0.00 0.00 83 1012.5
20260831101428 14 201 12.9 22.5 0.00 0.00 0.00 83 1012.6
20260831100935 14 239 9.7 20.9 0.00 0.00 0.00 83 1012.5
20260831100436 14 177 6.4 24.1 0.00 0.00 0.00 83 1012.4
20260831095919 14 225 9.7 24.1 0.00 0.00 0.00 83 1012.4
20260831095424 14 198 9.7 19.3 0.00 0.00 0.00 83 1012.4
20260831094930 14 229 9.7 19.3 0.00 0.00 0.00 83 1012.4
20260831094458 14 251 6.4 16.1 0.00 0.00 0.00 83 1012.4
20260831093953 14 201 4.8 16.1 0.00 0.00 0.00 83 1012.4
20260831093436 14 188 8.0 16.1 0.00 0.00 0.00 83 1012.4
20260831092941 14 239 6.4 16.1 0.00 0.00 0.00 83 1012.4
20260831092456 14 226 9.7 16.1 0.00 0.00 0.00 83 1012.5
20260831091921 14 240 4.8 20.9 0.00 0.00 0.00 83 1012.5
20260831091422 14 177 4.8 20.9 0.00 0.00 0.00 83 1012.4
20260831090956 14 301 4.8 19.3 0.00 0.00 0.00 83 1012.5
20260831090437 14 187 4.8 19.3 0.00 0.00 0.00 83 1012.4
20260831085919 14 326 8.0 16.1 0.00 0.00 0.00 83 1012.4
20260831085424 14 215 6.4 19.3 0.00 0.00 0.00 83 1012.4
20260831084927 14 237 8.0 22.5 0.00 0.00 0.00 83 1012.5
20260831084431 14 232 8.0 22.5 0.00 0.00 0.00 83 1012.5
20260831083933 14 233 8.0 20.9 0.00 0.00 0.00 83 1012.5
20260831083435 14 200 9.7 19.3 0.00 0.00 0.00 83 1012.6
20260831082939 14 214 6.4 17.7 0.00 0.00 0.00 83 1012.6
20260831082454 14 210 9.7 22.5 0.00 0.00 0.00 83 1012.6
20260831081919 14 222 3.2 17.7 0.00 0.00 0.00 83 1012.7
20260831081423 14 218 4.8 17.7 0.00 0.00 0.00 83 1012.7
20260831080927 14 217 9.7 17.7 0.00 0.00 0.00 83 1012.7
20260831080426 14 251 3.2 9.7 0.00 0.00 0.00 84 1012.6
20260831075932 14 257 4.8 17.7 0.00 0.00 0.00 84 1012.8
20260831075436 14 251 8.0 17.7 0.00 0.00 0.00 84 1012.9
20260831074919 14 233 3.2 9.7 0.00 0.00 0.00 83 1012.9
20260831074423 14 230 4.8 9.7 0.00 0.00 0.00 83 1012.8
20260831073929 14 222 4.8 14.5 0.00 0.00 0.00 83 1012.7
20260831073435 14 256 9.7 17.7 0.00 0.00 0.00 83 1012.7
20260831072934 14 177 4.8 17.7 0.00 0.00 0.00 83 1012.7
20260831072437 14 235 4.8 12.9 0.00 0.00 0.00 83 1012.6
20260831071921 14 218 4.8 11.3 0.00 0.00 0.00 84 1012.6
20260831071435 14 313 4.8 14.5 0.00 0.00 0.00 84 1012.7
20260831070942 14 215 8.0 14.5 0.00 0.00 0.00 84 1012.7
20260831070454 14 151 4.8 17.7 0.00 0.00 0.00 84 1012.8
20260831065922 14 225 11.3 17.7 0.00 0.00 0.00 84 1012.7
20260831065427 14 58 1.6 16.1 0.00 0.00 0.00 84 1012.8
20260831064932 14 222 3.2 16.1 0.00 0.00 0.00 84 1012.8
20260831064436 14 320 3.2 8.0 0.00 0.00 0.00 84 1012.8
20260831063920 14 228 3.2 12.9 0.00 0.00 0.00 84 1012.7
20260831063444 14 273 4.8 12.9 0.00 0.00 0.00 84 1012.7
20260831062929 14 256 3.2 9.7 0.00 0.00 0.00 84 1012.7
20260831062432 14 101 3.2 8.0 0.00 0.00 0.00 84 1012.8
20260831061936 14 130 3.2 8.0 0.00 0.00 0.00 84 1012.7
20260831061423 14 107 3.2 9.7 0.00 0.00 0.00 84 1012.8
20260831060958 14 105 4.8 11.3 0.00 0.00 0.00 84 1012.8
20260831060419 14 219 3.2 12.9 0.00 0.00 0.00 84 1012.8
20260831055924 14 83 4.8 8.0 0.00 0.00 0.00 84 1012.8
20260831055430 14 83 4.8 8.0 0.00 0.00 0.00 84 1012.7
20260831054930 14 67 3.2 8.0 0.00 0.00 0.00 84 1012.6
20260831054417 14 88 3.2 14.5 0.00 0.00 0.00 84 1012.6
20260831053921 14 205 4.8 14.5 0.00 0.00 0.00 84 1012.6
20260831053426 14 351 4.8 14.5 0.00 0.00 0.00 84 1012.6
20260831052932 14 107 1.6 8.0 0.00 0.00 0.00 84 1012.7
20260831052418 14 163 1.6 11.3 0.00 0.00 0.00 84 1012.6
20260831051923 14 134 4.8 11.3 0.00 0.00 0.00 84 1012.6
20260831051422 14 177 3.2 8.0 0.00 0.00 0.00 84 1012.7
20260831050929 14 88 4.8 8.0 0.00 0.00 0.00 84 1012.7
20260831050430 14 346 4.8 8.0 0.00 0.00 0.00 84 1012.7
20260831045934 14 75 6.4 12.9 0.00 0.00 0.00 84 1012.7
20260831045418 14 123 1.6 14.5 0.00 0.00 0.00 84 1012.6
20260831044920 14 162 6.4 14.5 0.00 0.00 0.00 84 1012.8
20260831044426 14 160 3.2 14.5 0.00 0.00 0.00 84 1012.7
20260831043930 14 163 6.4 19.3 0.00 0.00 0.00 84 1012.7
20260831043435 14 157 8.0 19.3 0.00 0.00 0.00 84 1012.7
20260831042938 14 5 3.2 12.9 0.00 0.00 0.00 84 1012.7
20260831042420 14 50 6.4 12.9 0.00 0.00 0.00 84 1012.7
20260831041926 14 82 6.4 12.9 0.00 0.00 0.00 85 1012.6
20260831041433 14 62 4.8 9.7 0.00 0.00 0.00 85 1012.7
20260831040938 14 69 4.8 12.9 0.00 0.00 0.00 85 1012.6
20260831040448 14 88 9.7 12.9 0.00 0.00 0.00 85 1012.5
20260831035959 14 52 8.0 11.3 0.00 0.00 0.00 85 1012.5
20260831035422 14 74 8.0 12.9 0.00 0.00 0.00 85 1012.3
20260831034927 14 106 6.4 12.9 0.00 0.00 0.00 85 1012.3
20260831034433 14 64 6.4 11.3 0.00 0.00 0.00 85 1012.3
20260831033919 14 27 4.8 11.3 0.00 0.00 0.00 85 1012.3
20260831033423 14 292 3.2 8.0 0.00 0.00 0.00 85 1012.4
20260831032922 14 62 1.6 12.9 0.00 0.00 0.00 85 1012.3
20260831032425 14 62 8.0 16.1 0.00 0.00 0.00 85 1012.2
20260831031938 14 83 9.7 16.1 0.00 0.00 0.00 85 1012.1
20260831031423 13 67 6.4 14.5 0.00 0.00 0.00 85 1012.1
20260831030929 13 78 8.0 12.9 0.00 0.00 0.00 85 1012.0
20260831030434 13 151 6.4 17.7 0.00 0.00 0.00 85 1011.9
20260831025933 13 322 4.8 24.1 0.00 0.00 0.00 85 1011.8
20260831025418 13 294 9.7 24.1 0.00 0.00 0.00 85 1011.8
20260831024924 13 249 8.0 20.9 0.00 0.00 0.00 85 1011.7
20260831024427 13 12 6.4 20.9 0.00 0.00 0.00 85 1011.7
20260831023933 13 320 9.7 19.3 0.00 0.00 0.00 85 1011.6
20260831023435 13 261 4.8 22.5 0.00 0.00 0.00 85 1011.6
20260831022919 13 214 8.0 17.7 0.00 0.00 0.00 84 1011.5
20260831022438 13 194 6.4 17.7 0.00 0.00 0.00 84 1011.4
20260831021925 13 192 4.8 24.1 0.00 0.00 0.00 84 1011.5
20260831021431 13 222 11.3 30.6 0.00 0.00 0.00 83 1011.6
20260831020936 13 301 12.9 30.6 0.00 0.00 0.00 83 1011.5
20260831020421 14 227 9.7 22.5 0.00 0.00 0.00 83 1011.6
20260831015946 14 254 9.7 24.1 0.00 0.00 0.00 82 1011.6
20260831015430 14 290 11.3 25.7 0.00 0.00 0.00 82 1011.6
20260831014932 14 196 8.0 27.4 0.00 0.00 0.00 81 1011.7
20260831014437 15 112 9.7 27.4 0.00 0.00 0.00 81 1011.7
20260831013942 15 224 11.3 24.1 0.00 0.00 0.00 80 1011.6
20260831013423 15 62 9.7 20.9 0.00 0.00 0.00 80 1011.7
20260831012927 15 319 6.4 12.9 0.00 0.00 0.00 80 1011.7
20260831012434 15 57 1.6 17.7 0.00 0.00 0.00 80 1011.7
20260831011933 15 83 3.2 17.7 0.00 0.00 0.00 79 1011.8
20260831011437 15 155 6.4 16.1 0.00 0.00 0.00 79 1012.0
20260831010920 15 327 8.0 17.7 0.00 0.00 0.00 79 1011.9
20260831010446 15 62 6.4 17.7 0.00 0.00 0.00 79 1011.9
20260831005927 15 59 8.0 16.1 0.00 0.00 0.00 78 1012.0
20260831005434 16 27 6.4 17.7 0.00 0.00 0.00 78 1012.1
20260831004921 16 163 11.3 19.3 0.00 0.00 0.00 78 1012.0
20260831004423 16 78 3.2 19.3 0.00 0.00 0.00 78 1012.1
20260831003926 16 31 8.0 17.7 0.00 0.00 0.00 78 1012.2
20260831003459 16 71 3.2 20.9 0.00 0.00 0.00 77 1012.0
20260831002951 16 313 8.0 20.9 0.00 0.00 0.00 77 1012.0
20260831002434 16 124 6.4 19.3 0.00 0.00 0.00 77 1012.0
20260831001938 16 66 8.0 22.5 0.00 0.00 0.00 76 1012.1
20260831001446 16 80 8.0 29.0 0.00 0.00 0.00 76 1012.1
20260831000933 16 277 4.8 29.0 0.00 0.00 0.00 77 1012.2
20260831000436 16 125 8.0 24.1 0.00 0.00 0.00 77 1012.3
20260830235918 16 244 9.7 20.9 0.00 0.00 0.00 76 1012.3
20260830235424 16 261 9.7 20.9 0.00 0.00 0.00 76 1012.4
20260830234927 16 172 6.4 20.9 0.00 0.00 0.00 75 1012.4
20260830234433 17 245 9.7 20.9 0.00 0.00 0.00 74 1012.3
20260830233933 17 8 6.4 17.7 0.00 0.00 0.00 74 1012.4
20260830233435 17 123 8.0 16.1 0.00 0.00 0.00 74 1012.5
20260830232921 17 205 6.4 16.1 0.00 0.00 0.00 74 1012.5
20260830232426 17 304 6.4 16.1 0.00 0.00 0.00 74 1012.5
20260830231929 17 17 8.0 27.4 0.00 0.00 0.00 75 1012.4
20260830231434 17 327 11.3 27.4 0.00 0.00 0.00 75 1012.5
20260830230918 17 116 8.0 22.5 0.00 0.00 0.00 75 1012.4
20260830230423 17 217 9.7 30.6 0.00 0.00 0.00 75 1012.5
20260830225921 17 209 12.9 30.6 0.00 0.00 0.00 74 1012.5
20260830225425 17 283 9.7 25.7 0.00 0.00 0.00 74 1012.6
20260830224931 17 197 9.7 25.7 0.00 0.00 0.00 74 1012.7
20260830224435 17 302 11.3 24.1 0.00 0.00 0.00 74 1012.7
20260830223919 17 258 11.3 25.7 0.00 0.00 0.00 74 1012.7
20260830223419 17 235 9.7 25.7 0.00 0.00 0.00 74 1012.7
20260830222923 17 222 11.3 27.4 0.00 0.00 0.00 74 1012.8
20260830222440 17 231 12.9 27.4 0.00 0.00 0.00 75 1012.8
20260830221923 16 195 12.9 33.8 0.00 0.00 0.00 76 1013.0
20260830221428 16 216 16.1 33.8 0.00 0.00 0.00 76 1013.1
20260830220932 16 209 12.9 33.8 0.00 0.00 0.00 76 1013.1
20260830220418 16 219 17.7 29.0 0.00 0.00 0.00 75 1013.1
20260830215922 16 209 14.5 32.2 0.00 0.00 0.00 76 1013.2
20260830215425 17 214 14.5 32.2 0.00 0.00 0.00 76 1013.3
20260830214928 16 287 17.7 33.8 0.00 0.00 0.00 76 1013.3
20260830214435 16 220 14.5 37.0 0.00 0.00 0.00 77 1013.4
20260830213918 16 359 16.1 33.8 0.00 0.00 0.00 76 1013.4
20260830213440 16 360 12.9 33.8 0.00 0.00 0.00 76 1013.6
20260830212924 16 226 19.3 33.8 0.00 0.00 0.00 76 1013.6
20260830212448 16 229 14.5 29.0 0.00 0.00 0.00 76 1013.5
20260830211930 16 226 14.5 30.6 0.00 0.00 0.00 76 1013.8
20260830211418 16 36 14.5 35.4 0.00 0.00 0.00 76 1013.9
20260830210943 16 230 19.3 35.4 0.00 0.00 0.00 75 1013.9
20260830210424 17 271 12.9 27.4 0.00 0.00 0.00 76 1013.9
20260830205927 16 199 16.1 29.0 0.00 0.00 0.00 76 1014.0
20260830205433 16 256 12.9 29.0 0.00 0.00 0.00 76 1014.1
20260830204932 16 220 12.9 29.0 0.00 0.00 0.00 77 1014.1
20260830204419 16 217 16.1 35.4 0.00 0.00 0.00 77 1014.3
20260830203928 16 205 16.1 35.4 0.00 0.00 0.00 77 1014.2
20260830203452 16 207 11.3 25.7 0.00 0.00 0.00 77 1014.4
20260830202957 16 222 14.5 25.7 0.00 0.00 0.00 77 1014.3
20260830202420 16 315 12.9 25.7 0.00 0.00 0.00 77 1014.4
20260830201944 16 253 9.7 29.0 0.00 0.00 0.00 78 1014.3
20260830201457 16 232 12.9 29.0 0.00 0.00 0.00 78 1014.4
20260830200923 16 236 11.3 30.6 0.00 0.00 0.00 78 1014.5
20260830200424 16 192 12.9 30.6 0.00 0.00 0.00 78 1014.6
20260830195923 16 27 9.7 32.2 0.00 0.00 0.00 78 1014.6
20260830195429 16 321 12.9 32.2 0.00 0.00 0.00 78 1014.6
20260830194932 16 280 11.3 29.0 0.00 0.00 0.00 79 1014.6
20260830194436 16 251 14.5 29.0 0.00 0.00 0.00 79 1014.7
20260830193920 16 191 17.7 29.0 0.00 0.00 0.00 78 1014.7
20260830193424 16 222 11.3 24.1 0.00 0.00 0.00 79 1014.7
20260830192928 16 235 6.4 24.1 0.00 0.00 0.00 80 1014.7
20260830192455 15 278 12.9 27.4 0.00 0.00 0.00 79 1014.9
20260830191920 15 237 17.7 27.4 0.00 0.00 0.00 79 1014.8
20260830191424 16 217 11.3 22.5 0.00 0.00 0.00 79 1014.7
20260830190929 15 229 14.5 27.4 0.00 0.00 0.00 79 1014.8
20260830190436 15 222 12.9 27.4 0.00 0.00 0.00 80 1014.9
20260830185933 15 200 12.9 30.6 0.00 0.00 0.00 80 1015.0
20260830185418 16 219 8.0 20.9 0.00 0.00 0.00 80 1014.8
20260830184940 15 237 8.0 20.9 0.00 0.00 0.00 80 1014.8
20260830184425 15 212 9.7 24.1 0.00 0.00 0.00 81 1015.0
20260830183929 15 261 12.9 25.7 0.00 0.00 0.00 81 1014.9
20260830183433 15 209 12.9 25.7 0.00 0.00 0.00 82 1014.9
20260830182918 15 196 12.9 24.1 0.00 0.00 0.00 82 1014.9
20260830182443 15 249 12.9 24.1 0.00 0.00 0.00 83 1014.9
20260830181920 15 194 11.3 17.7 0.00 0.00 0.00 83 1014.9
20260830181455 15 182 4.8 24.1 0.00 0.00 0.00 83 1014.9
20260830180936 14 200 9.7 24.1 0.00 0.00 0.00 83 1015.0
20260830180421 15 207 8.0 17.7 0.00 0.00 0.00 83 1015.0
20260830175925 14 261 8.0 22.5 0.00 0.00 0.00 84 1014.9
20260830175429 14 208 9.7 22.5 0.00 0.00 0.00 84 1015.0
20260830174941 14 189 6.4 16.1 0.00 0.00 0.00 84 1015.0
20260830174426 14 268 6.4 20.9 0.00 0.00 0.00 84 1015.1
20260830152420 13 230 8.0 14.5 0.00 0.00 0.00 86 1014.7
20260830151944 13 242 4.8 14.5 0.00 0.00 0.00 86 1014.6
20260830151428 13 188 6.4 14.5 0.00 0.00 0.00 86 1014.6
20260830150935 13 177 4.8 12.9 0.00 0.00 0.00 86 1014.6
20260830150435 13 249 6.4 16.1 0.00 0.00 0.00 86 1014.5
20260830145939 13 244 4.8 12.9 0.00 0.00 0.00 86 1014.5
20260830145422 13 228 4.8 12.9 0.00 0.00 0.00 86 1014.5
20260830144955 13 209 4.8 12.9 0.00 0.00 0.00 86 1014.5
20260830144420 13 199 6.4 16.1 0.00 0.00 0.00 86 1014.5
20260830143925 13 154 4.8 11.3 0.00 0.00 0.00 86 1014.6
20260830143443 13 285 3.2 14.5 0.00 0.00 0.00 86 1014.5
20260830142450 13 226 6.4 14.5 0.00 0.00 0.00 86 1014.4
20260830141430 13 219 4.8 11.3 0.00 0.00 0.00 86 1014.3
20260830140930 13 134 3.2 12.9 0.00 0.00 0.00 86 1014.2
20260830140429 13 251 6.4 12.9 0.00 0.00 0.00 86 1014.2
20260830135935 13 220 3.2 12.9 0.00 0.00 0.00 86 1014.2
20260830135419 13 221 3.2 16.1 0.00 0.00 0.00 86 1014.1
20260830134942 13 224 6.4 16.1 0.00 0.00 0.00 86 1014.0
20260830134425 13 216 4.8 8.0 0.00 0.00 0.00 86 1013.9
20260830133930 13 268 3.2 11.3 0.00 0.00 0.00 86 1013.9
20260830133429 13 183 4.8 11.3 0.00 0.00 0.00 86 1013.9
20260830132934 13 299 1.6 9.7 0.00 0.00 0.00 86 1013.8
20260830132450 13 268 3.2 9.7 0.00 0.00 0.00 86 1013.8
20260830132004 13 217 4.8 12.9 0.00 0.00 0.00 86 1013.8
20260830131457 13 268 4.8 16.1 0.00 0.00 0.00 85 1013.7
20260830130943 13 212 4.8 16.1 0.00 0.00 0.00 85 1013.6
20260830130441 13 289 3.2 11.3 0.00 0.00 0.00 86 1013.6
20260830125925 13 123 3.2 11.3 0.00 0.00 0.00 86 1013.6
20260830125431 13 326 3.2 8.0 0.00 0.00 0.00 86 1013.5
20260830124937 13 194 4.8 9.7 0.00 0.00 0.00 86 1013.4
20260830124452 13 124 4.8 11.3 0.00 0.00 0.00 86 1013.4
20260830123934 13 274 6.4 11.3 0.00 0.00 0.00 85 1013.4
20260830122933 13 205 3.2 4.8 0.00 0.00 0.00 85 1013.3
20260830122417 13 208 3.2 4.8 0.00 0.00 0.00 85 1013.2
20260830121921 13 45 1.6 8.0 0.00 0.00 0.00 85 1013.2
20260830121428 13 168 3.2 8.0 0.00 0.00 0.00 85 1013.3
20260830120935 13 222 3.2 8.0 0.00 0.00 0.00 85 1013.2
20260830120437 13 154 4.8 8.0 0.00 0.00 0.00 85 1013.2
20260830115920 13 256 3.2 11.3 0.00 0.00 0.00 85 1013.2
20260830115426 13 313 6.4 11.3 0.00 0.00 0.00 85 1013.3
20260830114931 13 160 3.2 14.5 0.00 0.00 0.00 85 1013.3